Snowfall_Accumulation
0.0 0.0 0.0 0.0 0.0 0.0 0.0 0.0 0.0 0.0 0.0 0.0 0.0 0.1 0.2 0.5 0.7 0.9 0.8 1.0 1.4 1.5 1.8 2.2 2.3 2.6 2.9 2.4 2.3 2.5 2.7 3.3 3.3 0.4 0.1 0.0 0.0 0.0 0.0 0.0 0.0 0.0 0.0
0.0 0.0 0.0 0.0 0.0 0.0 0.0 0.0 0.0 0.0 0.0 0.0 0.0 0.2 0.6 1.0 1.1 1.3 1.3 1.2 1.6 1.8 2.0 2.4 2.6 2.5 2.6 2.3 2.1 2.1 1.7 1.7 2.4 1.5 0.2 0.0 0.0 0.0 0.1 0.1 0.0 0.0 0.0
0.0 0.0 0.0 0.0 0.0 0.0 0.0 0.0 0.0 0.0 0.0 0.0 0.1 0.4 1.2 2.0 1.9 1.5 1.8 1.9 1.9 2.0 2.3 2.6 2.6 2.6 2.5 2.2 2.2 2.0 1.6 1.2 1.7 2.2 0.9 0.1 0.1 0.1 0.1 0.1 0.1 0.1 0.0
0.0 0.0 0.0 0.0 0.0 0.0 0.0 0.0 0.0 0.0 0.1 0.1 0.1 0.3 1.4 3.2 3.5 2.7 3.1 2.9 2.4 2.0 1.7 1.7 2.4 3.3 3.3 3.0 3.1 2.5 2.1 2.3 2.5 2.4 1.6 0.8 0.6 0.5 0.6 0.7 0.5 0.3 0.2
0.0 0.0 0.0 0.0 0.0 0.0 0.0 0.0 0.0 0.0 0.1 0.1 0.1 0.1 0.6 4.1 7.9 7.3 6.6 4.9 2.8 1.7 1.1 1.0 1.8 3.2 3.4 4.6 5.5 4.8 4.5 5.1 4.7 4.4 3.4 2.5 2.0 1.9 1.8 1.3 1.4 0.8 0.4
0.0 0.0 0.0 0.0 0.0 0.0 0.0 0.0 0.1 0.1 0.1 0.1 0.1 0.1 0.2 2.9 8.2 9.1 6.7 3.6 2.2 1.6 1.2 0.8 1.1 2.2 2.4 3.0 3.9 4.6 5.1 6.5 7.3 7.3 6.2 5.1 3.4 2.3 2.0 2.3 2.3 2.1 1.5
0.0 0.0 0.0 0.0 0.0 0.0 0.0 0.0 0.1 0.1 0.1 0.2 0.2 0.2 0.2 1.6 6.6 7.7 4.7 2.4 1.6 1.2 0.9 0.8 0.9 1.6 2.2 2.9 3.3 2.8 2.7 3.8 5.9 6.9 7.8 5.9 3.9 2.6 3.1 3.6 3.2 2.9 1.7
0.0 0.0 0.0 0.0 0.0 0.0 0.0 0.1 0.1 0.2 0.2 0.2 0.2 0.1 0.1 0.7 5.1 6.4 3.5 1.9 1.2 0.9 0.6 0.6 0.7 1.1 2.3 4.1 4.3 3.8 3.3 3.9 5.0 6.3 9.0 7.8 5.1 3.5 4.8 5.2 5.1 4.5 2.1
0.0 0.0 0.0 0.0 0.0 0.0 0.1 0.1 0.2 0.2 0.2 0.2 0.2 0.1 0.1 0.2 3.0 5.3 3.3 1.7 1.1 0.7 0.4 0.4 0.6 1.0 2.1 3.7 4.1 3.4 2.3 2.3 2.9 4.2 5.3 6.8 6.1 5.2 4.5 6.7 7.5 7.2 4.2
0.0 0.0 0.0 0.0 0.0 0.0 0.0 0.1 0.2 0.2 0.2 0.2 0.1 0.1 0.1 0.1 1.4 3.8 3.7 2.1 1.1 0.7 0.5 0.4 0.6 1.6 2.3 3.1 3.2 3.1 3.9 3.1 2.5 2.4 2.8 3.5 4.1 4.7 3.5 5.5 5.9 6.5 5.1
0.0 0.0 0.0 0.0 0.0 0.0 0.1 0.2 0.2 0.3 0.2 0.2 0.1 0.1 0.1 0.1 0.5 2.0 3.6 2.9 1.9 1.3 1.2 0.8 0.5 1.5 1.9 2.0 2.2 2.8 4.9 3.9 2.4 2.4 2.3 2.8 3.5 4.8 6.3 8.1 7.7 6.4 5.4
0.0 0.0 0.0 0.0 0.0 0.1 0.2 0.2 0.3 0.3 0.3 0.2 0.2 0.2 0.1 0.1 0.5 1.5 2.5 2.3 1.7 1.5 1.3 0.8 0.8 1.2 1.1 1.1 1.4 1.9 2.2 2.1 2.9 3.1 2.9 2.9 3.4 4.2 5.0 6.8 9.8 10.8 7.1
0.0 0.0 0.0 0.0 0.1 0.2 0.3 0.3 0.3 0.4 0.6 0.4 0.4 0.3 0.2 0.1 0.7 1.6 1.4 1.2 1.3 1.3 1.1 0.8 0.8 0.8 0.7 0.8 0.9 1.2 1.4 2.6 4.2 4.1 3.1 2.8 3.2 4.2 4.7 5.3 6.8 8.7 8.9
0.0 0.0 0.0 0.1 0.2 0.3 0.3 0.4 0.5 0.8 1.5 1.1 0.8 0.7 0.5 0.5 1.9 2.9 1.8 0.9 1.1 1.7 1.5 1.1 0.9 0.9 1.0 0.8 0.7 1.0 1.5 2.5 3.7 3.9 3.1 2.5 2.5 3.2 4.4 5.5 6.4 7.9 8.6
0.0 0.0 0.1 0.2 0.3 0.3 0.4 0.4 0.5 0.7 1.6 1.9 1.5 1.5 1.7 2.4 3.2 3.3 2.4 1.7 1.6 1.8 2.4 2.9 2.2 1.8 1.8 1.5 1.1 0.8 0.9 1.5 2.1 2.4 2.7 2.8 2.7 3.0 3.7 4.9 6.7 8.0 9.5
0.0 0.1 0.2 0.2 0.3 0.4 0.4 0.4 0.4 0.5 0.7 0.7 0.9 1.2 1.2 2.1 2.5 2.0 1.7 1.4 1.3 1.5 2.4 3.6 2.4 1.7 1.6 1.5 1.4 1.1 0.9 1.0 1.2 1.6 2.1 2.6 3.0 3.3 3.6 4.1 5.5 7.4 9.1
0.0 0.1 0.2 0.3 0.4 0.4 0.4 0.5 0.5 0.4 0.3 0.3 0.5 0.7 1.0 1.3 1.4 1.5 1.6 1.2 1.4 1.5 2.7 2.4 1.7 1.5 1.4 1.3 1.4 1.4 1.2 0.9 1.2 1.4 1.7 2.0 2.5 2.9 3.3 3.6 4.4 5.8 7.8
0.0 0.1 0.2 0.3 0.4 0.5 0.5 0.6 0.7 0.9 0.7 0.4 0.2 0.4 0.8 1.0 1.2 1.2 1.4 1.8 2.0 1.7 2.0 2.0 1.6 1.4 1.4 1.5 1.5 1.4 1.2 1.1 1.3 1.3 1.3 1.5 1.9 2.5 2.8 3.0 3.7 5.0 6.6
0.0 0.1 0.2 0.4 0.5 0.4 0.5 0.6 0.8 0.9 0.8 0.6 0.4 0.4 0.6 0.8 1.0 1.3 1.8 2.7 2.4 1.7 1.5 1.5 1.4 1.5 1.5 1.5 1.5 1.4 1.4 1.3 1.1 1.1 1.1 1.2 1.3 1.6 2.1 2.4 3.1 4.0 5.3
0.0 0.2 0.3 0.4 0.5 0.6 0.7 0.9 1.1 1.1 1.0 1.0 0.9 1.0 1.8 2.4 2.5 1.9 1.9 2.2 2.1 1.7 1.4 1.4 1.3 1.4 1.5 1.5 1.5 1.4 1.3 1.1 1.0 0.9 0.9 0.9 0.9 1.1 1.5 1.9 2.5 3.2 4.1
0.0 0.1 0.3 0.5 0.6 0.7 1.0 1.2 1.3 1.5 1.5 1.3 1.0 1.1 2.5 3.9 3.1 2.1 1.9 1.9 2.0 1.9 1.8 1.7 1.5 1.4 1.4 1.4 1.4 1.3 1.3 1.1 0.9 0.8 0.8 0.7 0.7 0.8 1.0 1.4 1.9 2.5 3.4
0.1 0.2 0.4 0.7 0.9 1.0 1.2 1.3 1.5 1.7 1.7 1.7 1.4 1.1 1.6 2.5 2.6 2.4 2.0 1.7 1.7 1.8 2.0 2.1 1.8 1.5 1.6 1.9 1.9 1.7 1.3 1.1 0.9 0.8 0.7 0.7 0.6 0.6 0.8 1.0 1.3 1.9 2.7
0.2 0.4 0.7 0.9 0.9 1.1 1.3 1.3 1.5 1.7 1.9 1.8 1.9 1.8 1.9 2.1 2.2 2.2 2.2 1.8 1.8 1.8 1.7 2.0 1.8 1.4 1.4 1.6 1.7 2.0 1.9 1.3 1.1 1.0 0.9 0.8 0.6 0.6 0.7 0.9 1.1 1.6 2.3
0.5 0.8 1.1 1.1 1.2 1.3 1.7 1.8 1.8 1.9 2.1 2.2 2.0 1.9 2.0 2.0 2.0 1.9 1.9 2.0 2.0 1.9 1.8 1.9 1.8 1.6 1.6 1.7 1.5 1.6 1.6 1.4 1.3 1.2 1.1 1.1 0.9 0.8 0.8 1.0 1.2 1.5 2.1
0.6 0.9 1.2 1.4 1.7 2.0 2.3 2.3 2.2 2.1 2.2 2.3 2.2 2.2 2.0 1.9 1.9 1.7 1.6 1.7 1.8 1.7 1.6 1.8 1.9 1.9 1.9 1.8 1.8 1.8 1.6 1.4 1.3 1.4 1.4 1.4 1.2 1.0 1.1 1.2 1.2 1.4 1.8
0.7 1.0 1.4 1.8 2.2 2.4 3.0 3.1 2.7 2.4 2.5 2.5 2.4 2.4 2.3 2.2 1.9 1.7 1.7 1.7 1.8 1.6 1.5 1.5 1.8 2.1 2.0 2.0 1.9 1.8 1.8 1.5 1.4 1.4 1.4 1.3 1.1 1.0 1.1 1.3 1.3 1.4 1.6